Wind_Speed
20 25 25 24 22 19 16 16 17 15 13 12 12 12 11 10 8 9 9 10 11 11 10 10 10 9 8 7 7 7 8 8 8 8 9 10 10 9 9 10 10 10 10
21 26 25 25 22 19 17 16 16 15 13 12 12 11 10 9 8 8 9 8 9 8 7 7 6 5 5 5 6 6 7 7 8 8 8 9 9 7 9 9 9 9 9
25 27 27 25 21 19 18 16 15 14 13 12 10 9 8 8 7 7 7 6 6 6 5 5 4 3 4 4 5 5 6 6 6 7 8 6 7 7 8 8 8 8 8
24 25 25 24 21 19 17 16 14 13 12 11 10 9 7 6 6 5 5 5 5 5 4 3 3 2 2 2 3 4 4 4 4 6 6 5 5 5 6 7 8 8 8
21 23 22 21 20 18 17 16 14 12 11 9 8 7 6 5 4 3 3 3 3 2 2 3 2 1 1 2 2 3 3 4 4 5 6 4 4 3 4 5 7 7 8
18 19 19 19 19 19 18 16 15 14 12 10 9 7 6 5 5 4 3 2 2 2 3 3 3 3 3 4 4 4 4 3 4 5 5 5 5 3 3 3 5 6 7
16 14 15 15 16 17 17 16 15 13 11 10 9 9 8 8 7 7 6 5 4 4 5 5 5 4 5 6 7 7 7 7 6 5 6 4 4 3 2 2 4 6 7
13 14 14 14 14 14 15 15 14 13 12 12 11 11 11 11 12 11 11 10 9 8 7 7 7 7 7 7 10 10 11 11 10 8 8 6 5 3 2 3 6 7 8
10 9 9 10 11 13 14 15 14 14 14 13 13 13 14 14 15 15 15 14 13 12 11 11 10 9 9 9 12 14 14 15 13 12 11 10 9 6 3 4 7 8 9
13 12 12 10 10 11 13 14 14 14 13 13 14 14 15 16 16 18 18 18 17 16 16 15 14 13 11 12 13 15 17 19 18 17 16 14 13 11 7 5 7 10 11
12 11 10 9 9 10 14 14 13 13 12 12 13 13 14 15 17 18 20 21 21 20 20 20 19 17 16 15 16 17 20 22 22 22 21 18 17 16 12 9 8 10 13
14 13 14 12 10 9 11 13 12 12 11 11 11 11 11 11 13 16 18 21 22 23 23 24 23 22 22 21 20 20 22 24 26 26 26 23 21 20 17 14 10 11 13
16 16 16 15 14 12 11 10 11 11 10 11 11 10 6 6 8 11 14 18 21 22 24 25 26 27 27 27 26 26 25 26 28 30 30 28 26 24 22 20 15 14 14
14 13 10 10 11 13 14 15 14 13 13 13 10 8 10 8 11 13 14 14 15 19 22 24 26 28 30 31 31 32 30 30 31 33 33 33 31 30 26 25 22 19 18
11 9 8 8 10 10 9 10 11 14 14 12 11 14 15 16 13 14 16 17 18 18 13 18 19 23 28 30 33 36 36 35 35 35 35 36 37 36 33 31 30 26 23
13 12 9 8 6 5 6 6 6 6 6 9 12 15 15 13 14 14 18 19 22 21 24 23 23 22 26 26 26 29 35 38 39 39 39 38 40 41 40 37 35 34 30
13 10 8 7 6 5 5 6 7 5 5 6 7 7 12 13 18 13 22 20 22 24 24 26 28 28 28 30 30 31 33 35 34 34 43 42 41 43 44 43 41 40 37
12 11 9 8 8 8 8 7 7 5 3 2 3 6 10 13 14 16 19 22 24 23 22 22 21 21 22 19 21 31 37 35 36 38 37 35 45 45 46 47 47 45 42
11 10 10 10 9 9 10 8 7 5 3 3 4 7 10 13 15 17 19 21 22 22 22 23 22 22 23 24 27 26 23 35 40 38 40 41 41 43 48 49 50 50 47
9 9 9 10 9 8 8 7 3 1 3 7 10 13 16 19 21 23 25 25 26 26 26 26 26 25 24 26 29 30 32 30 31 36 42 41 43 44 42 51 53 55 54
13 10 9 7 7 5 4 2 5 10 13 14 16 19 21 23 25 26 27 28 28 27 25 23 26 27 27 26 29 34 35 33 33 34 34 32 41 45 45 41 55 58 59
13 11 9 6 4 4 8 11 13 13 15 17 19 21 24 25 26 25 25 24 23 23 20 19 19 22 23 23 24 27 21 30 28 21 20 23 28 41 48 49 48 58 62
12 9 4 2 5 10 15 15 14 14 17 20 23 27 30 29 28 24 21 20 18 18 16 14 15 15 16 17 15 15 13 10 29 32 35 33 27 24 31 46 55 50 61
10 6 1 4 11 15 18 15 15 18 21 25 27 29 28 29 27 23 19 15 12 10 10 11 11 12 12 14 15 15 17 22 23 30 32 41 44 44 45 33 22 49 56
9 4 5 9 15 20 18 16 17 20 22 25 27 25 26 26 23 19 15 11 8 8 9 10 11 12 13 15 17 20 23 27 30 30 34 32 42 45 43 40 57 46 24
13 12 11 9 12 14 15 15 17 21 25 26 27 24 25 24 21 17 13 11 10 9 9 10 9 9 11 14 17 20 21 23 29 32 36 39 36 46 43 42 46 55 56
Wind_Direction
177 169 164 164 166 166 161 148 156 165 164 153 142 142 140 138 126 120 126 131 137 137 134 133 128 130 126 116 105 97 90 90 94 95 98 96 96 102 102 100 101 99 97
185 173 167 167 170 167 160 150 145 142 138 134 129 129 129 126 127 132 129 131 135 133 135 128 125 127 124 117 106 98 96 98 102 103 103 99 99 101 108 105 104 107 105
181 172 169 168 170 171 167 160 156 152 146 143 139 132 127 124 126 127 125 127 133 139 141 131 124 125 118 114 110 105 104 102 104 110 104 101 107 108 119 117 121 122 121
170 171 171 170 172 175 175 174 169 165 162 160 156 149 142 135 128 122 124 135 148 152 149 141 139 133 131 142 125 115 105 112 108 109 119 124 111 115 115 129 135 136 139
163 169 173 176 176 180 183 184 182 181 180 177 175 171 165 162 153 140 147 158 154 152 171 181 185 193 195 214 176 148 150 133 115 119 144 144 138 128 127 144 148 147 142
157 166 176 183 185 187 191 192 192 191 193 195 196 196 201 205 205 203 209 219 222 218 218 215 215 222 235 244 228 203 197 188 154 158 156 136 146 139 143 161 169 166 157
145 164 178 186 195 197 200 203 202 200 203 208 212 217 222 226 230 234 239 237 239 246 248 237 230 224 236 245 249 232 224 222 221 215 205 183 162 151 144 195 202 191 181
154 167 177 186 196 203 209 213 215 216 218 223 226 229 233 236 238 238 240 243 246 247 252 251 241 228 230 238 249 246 244 235 237 238 217 222 209 202 234 236 219 207 197
153 169 179 189 202 210 215 218 221 226 230 235 239 241 241 241 242 242 242 243 247 251 254 257 255 245 231 233 241 248 249 251 244 244 243 243 236 233 244 235 226 217 210
161 163 172 189 208 216 221 226 230 235 241 246 249 252 255 254 251 251 250 248 249 251 254 257 259 257 248 239 239 245 248 252 253 249 252 250 242 243 245 245 241 231 223
175 172 171 180 199 216 225 227 232 239 247 253 259 264 267 270 268 261 256 254 253 252 255 258 258 260 257 249 242 240 244 249 253 255 254 252 244 245 248 240 252 238 231
185 186 186 192 198 203 208 214 222 235 244 249 253 257 258 265 274 275 270 265 262 261 259 260 261 262 261 258 253 245 244 248 250 254 255 254 248 245 249 244 243 235 234
195 205 204 206 207 206 212 207 209 216 222 227 233 231 248 274 302 302 286 272 270 270 268 267 267 267 266 265 262 257 252 250 252 251 255 252 252 249 250 247 242 234 233
190 197 209 223 237 237 231 224 223 227 232 239 253 265 279 270 281 285 295 296 286 276 273 272 274 274 272 270 268 266 262 257 255 255 252 253 251 251 252 251 246 240 239
192 189 193 206 227 243 246 248 232 236 243 248 249 267 272 272 277 283 284 283 282 286 291 288 288 279 274 273 272 272 269 261 258 256 254 252 252 251 249 249 250 241 240
177 180 181 192 207 233 249 245 226 211 226 240 253 253 258 260 272 277 279 277 278 281 279 274 278 283 283 281 287 281 277 274 255 254 254 251 249 250 250 247 246 247 240
172 169 168 161 168 202 206 178 166 169 177 209 212 238 259 262 266 271 279 274 271 272 273 273 273 272 276 278 277 280 281 283 283 270 251 251 249 248 249 250 246 246 247
173 164 156 149 151 143 143 150 166 174 199 228 261 277 271 272 275 280 277 277 279 279 283 283 283 279 267 265 281 284 276 278 278 277 275 262 250 245 245 245 247 245 244
169 162 153 145 140 132 124 112 97 77 31 347 313 295 293 292 289 285 282 281 281 282 283 285 286 290 287 278 274 264 275 279 274 278 277 274 267 256 243 243 244 244 242
167 153 148 145 133 120 104 100 95 23 312 312 306 299 296 296 295 295 293 291 289 287 287 288 288 285 286 286 282 281 279 274 279 282 276 275 275 273 259 243 242 242 242
159 152 144 138 128 111 116 63 343 336 335 329 326 321 317 311 307 304 300 296 294 294 298 300 299 298 294 294 293 285 280 280 278 281 286 289 278 269 273 263 244 242 241
158 160 153 151 113 34 357 349 344 338 335 333 328 324 320 315 312 309 304 298 296 296 302 305 306 308 309 307 308 312 311 294 285 280 274 273 277 268 266 269 264 245 243
164 159 147 102 27 359 352 349 343 340 339 338 335 335 337 334 330 323 310 300 295 296 299 305 305 302 311 311 317 315 313 291 301 290 282 279 285 270 274 256 259 258 245
170 161 166 355 358 350 343 337 341 344 342 343 340 340 342 341 340 338 329 320 315 304 299 300 293 284 286 304 306 297 299 302 305 300 296 293 291 288 281 276 276 247 247
180 177 295 314 331 335 327 331 341 342 341 340 339 339 338 340 341 346 357 3 346 338 328 311 305 299 294 297 300 299 292 293 299 296 294 300 295 291 295 294 274 269 286
220 228 233 287 312 315 317 331 339 339 337 336 334 332 335 338 341 342 4 1 8 354 340 337 326 310 301 294 295 292 294 298 298 299 293 290 288 299 297 293 294 276 272
Height
1524 1527 1529 1531 1534 1536 1538 1538 1539 1540 1542 1543 1544 1546 1547 1547 1549 1549 1551 1553 1554 1556 1557 1557 1558 1559 1558 1559 1559 1559 1559 1561 1562 1563 1562 1562 1564 1566 1565 1565 1565 1566 1568
1524 1526 1529 1533 1535 1537 1539 1541 1542 1543 1544 1546 1546 1547 1548 1549 1551 1552 1553 1554 1556 1557 1558 1558 1559 1560 1560 1560 1560 1560 1561 1561 1562 1564 1564 1564 1564 1566 1566 1566 1567 1568 1569
1523 1526 1529 1533 1537 1540 1542 1543 1544 1545 1546 1548 1549 1550 1551 1552 1553 1554 1555 1556 1557 1559 1560 1560 1561 1561 1561 1561 1561 1562 1562 1562 1563 1564 1565 1565 1566 1566 1566 1567 1568 1570 1571
1524 1527 1530 1534 1538 1541 1543 1545 1546 1548 1549 1550 1550 1551 1552 1553 1554 1556 1557 1557 1558 1559 1561 1562 1562 1562 1562 1562 1562 1563 1563 1563 1563 1564 1565 1566 1567 1568 1568 1568 1570 1571 1573
1526 1529 1533 1536 1539 1542 1544 1546 1548 1549 1550 1552 1553 1554 1554 1555 1556 1557 1558 1559 1560 1560 1561 1562 1562 1562 1562 1562 1562 1564 1564 1564 1565 1565 1566 1567 1568 1569 1569 1570 1571 1571 1572
1528 1531 1534 1537 1539 1541 1544 1546 1548 1549 1550 1552 1553 1554 1555 1556 1557 1558 1558 1560 1560 1561 1562 1562 1563 1563 1563 1562 1562 1563 1565 1565 1567 1567 1568 1568 1569 1570 1570 1571 1572 1572 1572
1528 1533 1535 1538 1540 1542 1544 1546 1548 1549 1550 1552 1553 1554 1555 1556 1557 1558 1559 1559 1560 1561 1562 1563 1563 1563 1563 1563 1563 1564 1565 1567 1567 1568 1569 1569 1570 1570 1571 1571 1572 1573 1573
1531 1533 1536 1538 1541 1543 1545 1547 1549 1550 1551 1552 1553 1554 1555 1556 1556 1557 1558 1559 1560 1561 1561 1562 1563 1563 1563 1563 1563 1563 1564 1565 1567 1568 1569 1569 1570 1570 1570 1570 1571 1572 1573
1533 1536 1538 1540 1542 1544 1545 1546 1547 1549 1550 1551 1552 1553 1554 1554 1555 1555 1556 1557 1558 1560 1560 1561 1562 1562 1562 1563 1563 1562 1563 1563 1565 1567 1567 1568 1568 1568 1568 1569 1570 1570 1571
1531 1533 1536 1538 1540 1542 1543 1545 1546 1547 1549 1550 1551 1552 1553 1553 1553 1554 1555 1556 1557 1558 1558 1559 1560 1561 1561 1562 1562 1562 1561 1561 1562 1564 1565 1566 1567 1567 1567 1568 1568 1569 1569
1530 1533 1535 1537 1538 1540 1541 1542 1544 1545 1547 1548 1549 1550 1551 1552 1552 1552 1552 1553 1555 1555 1556 1557 1557 1557 1558 1559 1559 1560 1559 1558 1558 1559 1560 1562 1564 1565 1566 1566 1567 1567 1568
1528 1529 1531 1531 1533 1535 1537 1539 1540 1542 1543 1545 1546 1547 1546 1547 1549 1550 1550 1550 1551 1552 1553 1553 1554 1554 1555 1555 1556 1557 1556 1556 1555 1556 1557 1559 1560 1563 1564 1564 1563 1565 1566
1522 1524 1526 1527 1529 1531 1533 1536 1537 1538 1539 1540 1541 1542 1542 1544 1547 1547 1547 1547 1547 1549 1549 1550 1550 1550 1551 1551 1552 1553 1554 1554 1553 1552 1554 1556 1557 1558 1560 1561 1562 1562 1563
1521 1521 1524 1526 1527 1529 1531 1531 1532 1534 1535 1536 1538 1538 1541 1542 1543 1543 1544 1543 1542 1543 1544 1545 1546 1546 1546 1546 1547 1547 1549 1550 1550 1549 1550 1552 1553 1554 1556 1558 1559 1560 1561
1522 1522 1522 1523 1522 1523 1525 1527 1528 1529 1530 1533 1536 1536 1538 1539 1539 1539 1539 1540 1539 1538 1538 1539 1539 1540 1540 1540 1540 1541 1541 1543 1544 1544 1546 1547 1547 1549 1551 1552 1554 1556 1557
1521 1519 1520 1522 1522 1522 1522 1525 1526 1527 1528 1528 1527 1530 1532 1532 1533 1534 1534 1535 1535 1534 1534 1534 1533 1533 1533 1532 1532 1532 1531 1532 1534 1536 1538 1540 1543 1543 1544 1546 1548 1549 1550
1520 1521 1521 1522 1522 1522 1522 1523 1524 1525 1525 1524 1525 1526 1527 1528 1528 1528 1528 1528 1528 1528 1528 1527 1526 1525 1525 1525 1524 1523 1524 1524 1523 1526 1529 1531 1533 1536 1538 1540 1542 1542 1544
1521 1521 1521 1522 1522 1522 1523 1523 1524 1524 1525 1525 1526 1526 1526 1525 1524 1524 1524 1523 1523 1522 1521 1519 1518 1518 1518 1516 1515 1515 1516 1515 1516 1516 1517 1520 1522 1524 1527 1530 1533 1535 1538
1524 1523 1524 1524 1524 1524 1522 1522 1524 1525 1526 1525 1524 1524 1523 1522 1521 1519 1518 1516 1515 1515 1514 1512 1512 1511 1510 1510 1507 1507 1507 1506 1508 1508 1508 1510 1512 1514 1516 1519 1522 1525 1527
1525 1526 1526 1525 1525 1525 1525 1524 1525 1525 1525 1525 1524 1522 1520 1518 1517 1514 1512 1509 1508 1507 1506 1505 1504 1504 1503 1502 1500 1500 1500 1501 1501 1499 1500 1502 1502 1503 1507 1509 1512 1513 1516
1523 1526 1526 1525 1525 1525 1524 1523 1523 1522 1522 1520 1518 1516 1514 1511 1509 1508 1505 1503 1500 1498 1498 1498 1496 1496 1496 1495 1492 1491 1491 1493 1494 1495 1493 1491 1492 1494 1494 1498 1501 1503 1504
1522 1524 1524 1524 1525 1526 1524 1520 1519 1518 1518 1517 1516 1514 1511 1507 1504 1501 1498 1496 1494 1492 1493 1493 1492 1490 1490 1491 1488 1486 1482 1482 1484 1486 1486 1486 1486 1484 1484 1486 1489 1491 1493
1523 1524 1525 1524 1523 1524 1522 1518 1516 1515 1514 1512 1509 1507 1504 1500 1497 1493 1490 1488 1488 1487 1487 1488 1487 1487 1486 1486 1487 1487 1484 1480 1478 1478 1479 1479 1479 1479 1478 1475 1476 1477 1480
1523 1525 1526 1525 1522 1522 1522 1518 1514 1511 1509 1506 1504 1502 1499 1495 1491 1486 1483 1482 1481 1482 1482 1482 1482 1481 1481 1481 1482 1484 1483 1481 1476 1467 1471 1471 1471 1469 1470 1468 1464 1465 1467
1522 1522 1524 1524 1520 1519 1522 1516 1511 1509 1507 1504 1502 1499 1497 1494 1489 1484 1481 1479 1479 1479 1478 1477 1478 1478 1478 1478 1478 1478 1478 1475 1474 1469 1458 1462 1462 1460 1459 1457 1455 1456 1454
1518 1517 1517 1520 1520 1518 1518 1512 1508 1507 1504 1501 1500 1497 1495 1491 1488 1484 1481 1479 1478 1477 1476 1475 1476 1475 1474 1473 1473 1473 1472 1470 1467 1466 1460 1451 1453 1449 1447 1447 1443 1441 1434